Dean International
Flight School

Career Spotlight

Mika

Mika

Congratulations to Mika from Khazakstan. She recently sent us this photo of her flying an Airbus airliner.

More...
Mika's Success Story
close

Congratulations to Mika from Khazakstan. She recently sent us this photo of her flying an Airbus airliner.

Mario

Mario

My dreams could not have been realized if I wouldn't have been part of the Dean International family.

More...
Mario's Success Story
close

"My dreams could not have been realized if I wouldn't have been part of the Dean International family. Thank you Robert, thanks to all my co-workers, and thanks to all of my students!"

Fernando

Fernando

I am now working as a First Officer at TACA and am enjoying every moment of it.

More...
Fernando's Success Story
close

"Will never forget my time of flight training at Dean International. I am now working as a First Officer at TACA and am enjoying every moment of it."

Alvaro

Alvaro

Because of the flight time I was able to built while instructing, I got the experience needed to apply to an airline in Colombia.

More...
Alvaro's Success Story
close

Dean alumnus Alvaro Londoño currently flies with Tampa Cargo. He says of his experience at Dean: "I want to take this opportunity to thank you for giving me the chance to build my experience and expand my knowledge in Dean International. Because of the flight time I was able to built flight instructing, I got the experience needed to apply to an airline in Colombia."

Ralph

Ralph

Every Aruban student of Dean International has made it into Tiara Air Aruba, that is very nice.

More...
Ralph's Success Story
close

"Next to me is my Co-Pilot, Elison. This picture was taken on our first flight together, which was almost exactly 5 years after I finished at Dean International. [...] Every Aruban student of Dean International has made it into Tiara Air Aruba. [...] The future looks bright here in Aruba."

Rohaan

Rohaan

The [..] staff will all work diligently to help you finish your certificates as safely and efficiently as possible.

More...
Rohaan's Success Story
close

After receiving very hard times from other flight schools [...], I came to Dean International where Robert Dean personally sat down with me and gave me a financial and chronological look into how much remained to finish my private pilot certificate. Through his hard efforts as an instructor and mentor, I was able to finish my private pilot certificate within one week.

Welcome to Dean International

In over two decades, Dean International has educated over 7,000 pilots from all over the world, including over 1,000 students from India alone. By offering a great training experience, a friendly service staff, an ample variety of aircraft, and by improving constantly, we have become one of the largest, most prestigious FAA 141-approved flight schools in North America. Located in Miami, Florida, USA, our flight school offers an ideal location for year-round, "learn to fly" weather, flight training. Dean International is not only well-equipped to provide services to professional trainees but also caters to General Aviation renters. Visit or contact our headquarters at Kendall-Tamiami Executive Airport located in Miami, FL today to learn more about us, or simply read more about our programs if you are an international student interested in joining our school.

Local Airport Information
TAF FOR KTMB (Issued: Fri, January 30th 2015 9:18 PM UTC)
TAF
      AMD KTMB 302117Z 3021/3118 33009KT P6SM SCT050
      FM311000 01007KT P6SM SKC
      FM311400 07015KT P6SM SCT030 SCT050
     
METAR FOR KTMB (Issued: Sat, January 31st 2015 2:53 AM UTC):
KTMB 310253Z 26003KT 10SM CLR 14/11 A3017 RMK AO2 SLP215 T01390111 51007

This weather information is provided by the National Weather Service.
It is automatically refreshed every three minutes.
TAF FOR KHST (Issued: Sat, January 31st 2015 12:06 AM UTC)
TAF KHST 3100/0106 35006KT 9999 SCT040 SCT300 QNH3011INS
      BECMG 3111/3112 03015KT 9999 FEW050 QNH3008INS
      BECMG 0102/0103 06015G20KT 9999 SCT020 QNH3019INS TX22/3122Z TN14/3110Z
     
METAR FOR KHST (Issued: Sat, January 31st 2015 2:58 AM UTC):
KHST 310258Z AUTO 25002KT 10SM CLR 16/12 A3016 RMK AO2 SLP216 T01560122 51008

This weather information is provided by the National Weather Service.
It is automatically refreshed every three minutes.
TAF FOR KOPF (Issued: Fri, January 30th 2015 9:18 PM UTC)
TAF
      AMD KOPF 302117Z 3021/3118 31008KT P6SM SCT250
      FM310500 02010KT P6SM SKC
      FM311400 07013KT P6SM SCT030 SCT050
     
METAR FOR KOPF (Issued: Sat, January 31st 2015 2:53 AM UTC):
KOPF 310253Z AUTO 00000KT 10SM CLR 17/11 A3016 RMK AO2 SLP215 T01720106 53006

This weather information is provided by the National Weather Service.
It is automatically refreshed every three minutes.
TAF FOR KMIA (Issued: Fri, January 30th 2015 9:21 PM UTC)
TAF
      AMD KMIA 302117Z 3021/3118 32007KT P6SM FEW050 BKN300
      FM310900 01006KT P6SM SCT035 BKN300
      FM311400 06012KT P6SM SCT030 SCT050
     
METAR FOR KMIA (Issued: Sat, January 31st 2015 2:53 AM UTC):
KMIA 310253Z VRB03KT 10SM FEW250 18/09 A3016 RMK AO2 SLP214 T01780089 53006

This weather information is provided by the National Weather Service.
It is automatically refreshed every three minutes.
Design by Ariel Llizo
© Dean International Inc. 2012